DAL503 KMCI-KMCO

Flight info

Callsign DAL503
Flight time 2h 13m
Altitude 31000
Route RACER8 SGF Q116 DEEDA GRNCH5
Aircraft B739/M-SDE2E3FGHIRWXY/LB1

Departure

Time 2026-04-24 22:20
Airport Kansas City International Airport (KMCI)

Arrival

Time 2026-04-25 00:33
Airport Orlando International Airport (KMCO)
Time Latitude Longitude Altitude Speed Heading
2026-04-24 21:55 39.30054 -94.72144 1013 ft 0 kts 282°
2026-04-24 22:11 39.30049 -94.72115 1013 ft 4 kts 290°
2026-04-24 22:11 39.30035 -94.72090 1013 ft 4 kts 340°
2026-04-24 22:11 39.30013 -94.72088 1013 ft 1 kts 12°
2026-04-24 22:13 39.30079 -94.72069 1013 ft 17 kts 12°
2026-04-24 22:13 39.30145 -94.72159 1013 ft 16 kts 283°
2026-04-24 22:14 39.30170 -94.72299 1013 ft 16 kts 283°
2026-04-24 22:14 39.30139 -94.72421 1013 ft 16 kts 198°
2026-04-24 22:14 39.30021 -94.72455 1014 ft 20 kts 193°
2026-04-24 22:14 39.29881 -94.72497 1014 ft 21 kts 193°
2026-04-24 22:15 39.29740 -94.72538 1014 ft 20 kts 193°
2026-04-24 22:15 39.29604 -94.72578 1013 ft 20 kts 193°
2026-04-24 22:15 39.29472 -94.72617 1013 ft 19 kts 193°
2026-04-24 22:15 39.29346 -94.72655 1013 ft 19 kts 193°
2026-04-24 22:16 39.29217 -94.72643 1013 ft 21 kts 119°
2026-04-24 22:16 39.29198 -94.72457 1013 ft 21 kts 95°
2026-04-24 22:16 39.29183 -94.72253 1013 ft 24 kts 95°
2026-04-24 22:16 39.29163 -94.72031 1014 ft 26 kts 96°
2026-04-24 22:17 39.29143 -94.71791 1014 ft 28 kts 96°
2026-04-24 22:17 39.29122 -94.71539 1014 ft 27 kts 96°
2026-04-24 22:17 39.29103 -94.71302 1013 ft 26 kts 97°
2026-04-24 22:17 39.29080 -94.71028 1013 ft 29 kts 95°
2026-04-24 22:18 39.29001 -94.70904 1012 ft 16 kts 193°
2026-04-24 22:18 39.28825 -94.70959 1014 ft 35 kts 193°
2026-04-24 22:18 39.28591 -94.71028 1014 ft 34 kts 193°
2026-04-24 22:18 39.28372 -94.71094 1013 ft 31 kts 193°
2026-04-24 22:19 39.28202 -94.71106 1013 ft 22 kts 128°
2026-04-24 22:19 39.28176 -94.70918 1012 ft 21 kts 59°
2026-04-24 22:19 39.28317 -94.70850 1014 ft 34 kts 13°
2026-04-24 22:19 39.28784 -94.70715 1015 ft 102 kts 13°
2026-04-24 22:20 39.29671 -94.70454 1015 ft 156 kts 12°
2026-04-24 22:20 39.30802 -94.70113 1371 ft 172 kts 12°
2026-04-24 22:20 39.31982 -94.69734 2033 ft 183 kts 20°
2026-04-24 22:20 39.33013 -94.68611 2213 ft 214 kts 63°
2026-04-24 22:21 39.33172 -94.66594 2462 ft 247 kts 102°
2026-04-24 22:21 39.32258 -94.64615 2877 ft 268 kts 133°
2026-04-24 22:21 39.30754 -94.63167 3633 ft 274 kts 153°
2026-04-24 22:21 39.28889 -94.62553 4310 ft 280 kts 177°
2026-04-24 22:22 39.26920 -94.62474 4988 ft 285 kts 180°
2026-04-24 22:22 39.24928 -94.62443 5755 ft 287 kts 180°
2026-04-24 22:22 39.22955 -94.62402 6541 ft 287 kts 180°
2026-04-24 22:22 39.20945 -94.62338 7226 ft 290 kts 179°
2026-04-24 22:23 39.18935 -94.62252 8030 ft 288 kts 179°
2026-04-24 22:23 39.16921 -94.62152 8767 ft 289 kts 180°
2026-04-24 22:23 39.14906 -94.62040 9494 ft 292 kts 179°
2026-04-24 22:23 39.12872 -94.61921 10198 ft 293 kts 179°
2026-04-24 22:24 39.10782 -94.61796 10488 ft 311 kts 179°
2026-04-24 22:24 39.08547 -94.61659 10648 ft 331 kts 179°
2026-04-24 22:24 39.06175 -94.61509 10810 ft 351 kts 179°
2026-04-24 22:24 39.03663 -94.61349 10941 ft 370 kts 179°
2026-04-24 22:25 39.01041 -94.61179 11190 ft 383 kts 179°
2026-04-24 22:25 38.98386 -94.61006 11637 ft 389 kts 179°
2026-04-24 22:25 38.95674 -94.60828 12181 ft 392 kts 178°
2026-04-24 22:25 38.92940 -94.60648 12747 ft 394 kts 179°
2026-04-24 22:26 38.90185 -94.60468 13270 ft 398 kts 178°
2026-04-24 22:26 38.87399 -94.60286 13795 ft 402 kts 178°
2026-04-24 22:26 38.84590 -94.60105 14281 ft 405 kts 179°
2026-04-24 22:26 38.81765 -94.59924 14803 ft 406 kts 179°
2026-04-24 22:27 38.78932 -94.59741 15313 ft 409 kts 178°
2026-04-24 22:27 38.76083 -94.59557 15815 ft 411 kts 179°
2026-04-24 22:27 38.73255 -94.59374 16306 ft 414 kts 179°
2026-04-24 22:27 38.70365 -94.59187 16794 ft 416 kts 178°
2026-04-24 22:28 38.67473 -94.58789 17248 ft 421 kts 172°
2026-04-24 22:28 38.64579 -94.58090 17764 ft 424 kts 171°
2026-04-24 22:28 38.61674 -94.57328 18222 ft 426 kts 170°
2026-04-24 22:28 38.58759 -94.56561 18621 ft 429 kts 171°
2026-04-24 22:29 38.52921 -94.55079 19489 ft 431 kts 172°
2026-04-24 22:29 38.49969 -94.54352 19912 ft 433 kts 173°
2026-04-24 22:29 38.47003 -94.53629 20322 ft 435 kts 173°
2026-04-24 22:30 38.44018 -94.52905 20728 ft 437 kts 174°
2026-04-24 22:30 38.41024 -94.52177 21131 ft 438 kts 174°
2026-04-24 22:30 38.38015 -94.51446 21513 ft 440 kts 174°
2026-04-24 22:30 38.34993 -94.50714 21879 ft 442 kts 175°
2026-04-24 22:31 38.31966 -94.49980 22246 ft 444 kts 174°
2026-04-24 22:31 38.28968 -94.48885 22584 ft 455 kts 163°
2026-04-24 22:31 38.26153 -94.47024 22916 ft 466 kts 153°
2026-04-24 22:31 38.23572 -94.44455 23234 ft 478 kts 142°
2026-04-24 22:32 38.21204 -94.41448 23532 ft 482 kts 140°
2026-04-24 22:32 38.18860 -94.38377 23773 ft 485 kts 140°
2026-04-24 22:32 38.16508 -94.35280 24065 ft 486 kts 140°
2026-04-24 22:32 38.14151 -94.32194 24374 ft 487 kts 140°
2026-04-24 22:33 38.11779 -94.29119 24665 ft 488 kts 141°
2026-04-24 22:33 38.09416 -94.26083 24873 ft 490 kts 141°
2026-04-24 22:33 38.07006 -94.23006 25112 ft 492 kts 141°
2026-04-24 22:33 38.04586 -94.19926 25395 ft 493 kts 141°
2026-04-24 22:34 38.02152 -94.16836 25646 ft 495 kts 141°
2026-04-24 22:34 37.99711 -94.13741 25865 ft 497 kts 141°
2026-04-24 22:34 37.97263 -94.10638 26132 ft 498 kts 141°
2026-04-24 22:34 37.94812 -94.07533 26464 ft 498 kts 141°
2026-04-24 22:35 37.92366 -94.04432 26892 ft 495 kts 141°
2026-04-24 22:35 37.89940 -94.01360 27367 ft 492 kts 141°
2026-04-24 22:35 37.87522 -93.98301 27792 ft 489 kts 142°
2026-04-24 22:35 37.85113 -93.95260 28139 ft 489 kts 142°
2026-04-24 22:36 37.82704 -93.92223 28505 ft 488 kts 142°
2026-04-24 22:36 37.80303 -93.89198 28960 ft 486 kts 142°
2026-04-24 22:36 37.77943 -93.86225 29444 ft 483 kts 142°
2026-04-24 22:36 37.75564 -93.83233 29914 ft 480 kts 142°
2026-04-24 22:37 37.73203 -93.80265 30299 ft 478 kts 143°
2026-04-24 22:37 37.70840 -93.77301 30587 ft 478 kts 143°
2026-04-24 22:37 37.68484 -93.74349 30869 ft 477 kts 143°
2026-04-24 22:37 37.66123 -93.71394 30839 ft 478 kts 143°
2026-04-24 22:38 37.61417 -93.65507 30849 ft 476 kts 143°
2026-04-24 22:38 37.56704 -93.59623 30858 ft 477 kts 143°
2026-04-24 22:39 37.52012 -93.53777 30843 ft 477 kts 143°
2026-04-24 22:39 37.47291 -93.47903 30844 ft 477 kts 143°
2026-04-24 22:40 37.42566 -93.42034 30826 ft 477 kts 142°
2026-04-24 22:40 37.37830 -93.36162 30833 ft 477 kts 143°
2026-04-24 22:41 37.33212 -93.30102 30832 ft 483 kts 138°
2026-04-24 22:41 37.29619 -93.24683 30836 ft 485 kts 136°
2026-04-24 22:42 37.24652 -93.17034 30838 ft 485 kts 136°
2026-04-24 22:42 37.20354 -93.10523 30834 ft 484 kts 137°
2026-04-24 22:43 37.16057 -93.04093 30828 ft 483 kts 137°
2026-04-24 22:43 37.11725 -92.97639 30831 ft 483 kts 137°
2026-04-24 22:44 37.07393 -92.91194 30835 ft 483 kts 137°
2026-04-24 22:44 37.03064 -92.84764 30832 ft 483 kts 137°
2026-04-24 22:45 36.98728 -92.78334 30829 ft 483 kts 137°
2026-04-24 22:45 36.94392 -92.71916 30826 ft 482 kts 136°
2026-04-24 22:46 36.90089 -92.65560 30824 ft 481 kts 136°
2026-04-24 22:46 36.85766 -92.59185 30836 ft 480 kts 136°
2026-04-24 22:47 36.81449 -92.52831 30844 ft 478 kts 136°
2026-04-24 22:47 36.77174 -92.46552 30844 ft 477 kts 137°
2026-04-24 22:48 36.72871 -92.40246 30845 ft 476 kts 137°
2026-04-24 22:48 36.68583 -92.33972 30836 ft 474 kts 136°
2026-04-24 22:49 36.64301 -92.27718 30838 ft 473 kts 136°
2026-04-24 22:49 36.60057 -92.21532 30853 ft 473 kts 136°
2026-04-24 22:50 36.55765 -92.15289 30851 ft 474 kts 136°
2026-04-24 22:50 36.51464 -92.09042 30858 ft 475 kts 136°
2026-04-24 22:51 36.47185 -92.02839 30833 ft 475 kts 136°
2026-04-24 22:51 36.42884 -91.96614 30851 ft 475 kts 136°
2026-04-24 22:52 36.38581 -91.90398 30844 ft 474 kts 136°
2026-04-24 22:52 36.35012 -91.85251 30855 ft 473 kts 136°
2026-04-24 22:53 36.30716 -91.79066 30869 ft 472 kts 136°
2026-04-24 22:53 36.26427 -91.72902 30857 ft 471 kts 136°
2026-04-24 22:54 36.22162 -91.66804 30855 ft 470 kts 136°
2026-04-24 22:54 36.17862 -91.60680 30871 ft 470 kts 136°
2026-04-24 22:55 36.13571 -91.54573 30860 ft 469 kts 136°
2026-04-24 22:55 36.09284 -91.48473 30863 ft 469 kts 137°
2026-04-24 22:56 36.05032 -91.42424 30865 ft 469 kts 137°
2026-04-24 22:56 36.00745 -91.36332 30866 ft 470 kts 137°
2026-04-24 22:57 35.96443 -91.30231 30866 ft 471 kts 137°
2026-04-24 22:57 35.92137 -91.24136 30864 ft 471 kts 137°
2026-04-24 22:58 35.87824 -91.18041 30873 ft 472 kts 137°
2026-04-24 22:58 35.83493 -91.11933 30856 ft 472 kts 137°
2026-04-24 22:59 35.79193 -91.05879 30872 ft 473 kts 137°
2026-04-24 23:00 35.72687 -90.96739 30858 ft 473 kts 137°
2026-04-24 23:00 35.68333 -90.90638 30872 ft 473 kts 137°
2026-04-24 23:01 35.64009 -90.84588 30878 ft 473 kts 137°
2026-04-24 23:01 35.59664 -90.78519 30873 ft 473 kts 137°
2026-04-24 23:02 35.55307 -90.72444 30874 ft 473 kts 136°
2026-04-24 23:02 35.50952 -90.66383 30871 ft 472 kts 136°
2026-04-24 23:03 35.46602 -90.60340 30865 ft 471 kts 136°
2026-04-24 23:03 35.42264 -90.54325 30870 ft 470 kts 136°
2026-04-24 23:04 35.37933 -90.48329 30878 ft 469 kts 136°
2026-04-24 23:04 35.33627 -90.42379 30875 ft 469 kts 136°
2026-04-24 23:05 35.29296 -90.36405 30870 ft 469 kts 136°
2026-04-24 23:05 35.24967 -90.30444 30878 ft 468 kts 136°
2026-04-24 23:06 35.20636 -90.24491 30872 ft 468 kts 136°
2026-04-24 23:06 35.16296 -90.18534 30879 ft 469 kts 136°
2026-04-24 23:07 35.11938 -90.12563 30860 ft 469 kts 136°
2026-04-24 23:07 35.07612 -90.06645 30868 ft 470 kts 136°
2026-04-24 23:08 35.03244 -90.00681 30862 ft 471 kts 135°
2026-04-24 23:08 34.99549 -89.94032 30869 ft 478 kts 120°
2026-04-24 23:09 34.96571 -89.86755 30836 ft 479 kts 120°
2026-04-24 23:09 34.93600 -89.79480 30835 ft 479 kts 120°
2026-04-24 23:10 34.90602 -89.72269 30842 ft 479 kts 120°
2026-04-24 23:10 34.87564 -89.65040 30846 ft 479 kts 120°
2026-04-24 23:11 34.84521 -89.57828 30853 ft 478 kts 120°
2026-04-24 23:11 34.81478 -89.50629 30861 ft 478 kts 120°
2026-04-24 23:12 34.78432 -89.43431 30866 ft 478 kts 121°
2026-04-24 23:12 34.75382 -89.36242 30868 ft 478 kts 121°
2026-04-24 23:13 34.72332 -89.29066 30868 ft 477 kts 120°
2026-04-24 23:13 34.69303 -89.21956 30869 ft 476 kts 120°
2026-04-24 23:14 34.66252 -89.14805 30866 ft 475 kts 120°
2026-04-24 23:14 34.63202 -89.07676 30872 ft 474 kts 120°
2026-04-24 23:15 34.60161 -89.00581 30877 ft 473 kts 120°
2026-04-24 23:15 34.57137 -88.93542 30879 ft 473 kts 120°
2026-04-24 23:16 34.54095 -88.86474 30882 ft 472 kts 120°
2026-04-24 23:16 34.51046 -88.79404 30887 ft 473 kts 120°
2026-04-24 23:17 34.47987 -88.72328 30884 ft 473 kts 120°
2026-04-24 23:17 34.44943 -88.65299 30903 ft 473 kts 120°
2026-04-24 23:18 34.41877 -88.58235 30892 ft 473 kts 120°
2026-04-24 23:18 34.38807 -88.51175 30902 ft 473 kts 120°
2026-04-24 23:19 34.35733 -88.44116 30900 ft 473 kts 119°
2026-04-24 23:19 34.32677 -88.37119 30885 ft 473 kts 119°
2026-04-24 23:20 34.29591 -88.30068 30883 ft 473 kts 119°
2026-04-24 23:20 34.26506 -88.23032 30882 ft 473 kts 119°
2026-04-24 23:21 34.23418 -88.16004 30875 ft 473 kts 119°
2026-04-24 23:21 34.20352 -88.09038 30881 ft 473 kts 120°
2026-04-24 23:22 34.17259 -88.02027 30871 ft 472 kts 118°
2026-04-24 23:22 34.14167 -87.95031 30870 ft 471 kts 119°
2026-04-24 23:23 34.11078 -87.88056 30875 ft 471 kts 119°
2026-04-24 23:23 34.07985 -87.81084 30871 ft 471 kts 119°
2026-04-24 23:24 34.04911 -87.74168 30866 ft 470 kts 118°
2026-04-24 23:24 34.01817 -87.67222 30882 ft 470 kts 118°
2026-04-24 23:25 33.98730 -87.60276 30890 ft 470 kts 118°
2026-04-24 23:25 33.95639 -87.53326 30904 ft 470 kts 118°
2026-04-24 23:26 33.92543 -87.46382 30914 ft 470 kts 118°
2026-04-24 23:26 33.89432 -87.39432 30928 ft 472 kts 118°
2026-04-24 23:27 33.86307 -87.32512 30933 ft 473 kts 119°
2026-04-24 23:27 33.83147 -87.25527 30931 ft 476 kts 118°
2026-04-24 23:28 33.79977 -87.18529 30871 ft 477 kts 119°
2026-04-24 23:28 33.76795 -87.11512 30867 ft 478 kts 119°
2026-04-24 23:29 33.73600 -87.04483 30897 ft 479 kts 119°
2026-04-24 23:29 33.70403 -86.97458 30917 ft 479 kts 119°
2026-04-24 23:30 33.66947 -86.90698 30933 ft 477 kts 130°
2026-04-24 23:30 33.62130 -86.85274 30949 ft 474 kts 143°
2026-04-24 23:31 33.56866 -86.80504 30949 ft 474 kts 143°
2026-04-24 23:31 33.51610 -86.75734 30941 ft 474 kts 143°
2026-04-24 23:32 33.46371 -86.70928 30937 ft 474 kts 143°
2026-04-24 23:32 33.41150 -86.66116 30939 ft 473 kts 143°
2026-04-24 23:33 33.35958 -86.61331 30918 ft 474 kts 143°
2026-04-24 23:33 33.30725 -86.56519 30924 ft 474 kts 143°
2026-04-24 23:34 33.25482 -86.51707 30928 ft 474 kts 143°
2026-04-24 23:34 33.20238 -86.46902 30942 ft 475 kts 143°
2026-04-24 23:35 33.15027 -86.42135 30943 ft 475 kts 143°
2026-04-24 23:35 33.09767 -86.37330 30942 ft 476 kts 143°
2026-04-24 23:36 33.04501 -86.32527 30904 ft 476 kts 143°
2026-04-24 23:36 32.99229 -86.27727 30902 ft 476 kts 143°
2026-04-24 23:37 32.93960 -86.22935 30915 ft 477 kts 143°
2026-04-24 23:37 32.86075 -86.15781 30917 ft 477 kts 143°
2026-04-24 23:38 32.80800 -86.11003 30913 ft 477 kts 143°
2026-04-24 23:38 32.75522 -86.06229 30919 ft 477 kts 143°
2026-04-24 23:39 32.71124 -86.02257 30913 ft 477 kts 143°
2026-04-24 23:39 32.65830 -85.97483 30906 ft 478 kts 143°
2026-04-24 23:40 32.60570 -85.92747 30901 ft 478 kts 143°
2026-04-24 23:40 32.55263 -85.87975 30901 ft 478 kts 143°
2026-04-24 23:41 32.49947 -85.83203 30895 ft 479 kts 143°
2026-04-24 23:41 32.44618 -85.78426 30900 ft 480 kts 143°
2026-04-24 23:42 32.39328 -85.73691 30904 ft 480 kts 143°
2026-04-24 23:42 32.33996 -85.68926 30909 ft 480 kts 143°
2026-04-24 23:43 32.28652 -85.64158 30913 ft 481 kts 143°
2026-04-24 23:43 32.23309 -85.59397 30907 ft 481 kts 144°
2026-04-24 23:44 32.17958 -85.54637 30921 ft 482 kts 144°
2026-04-24 23:44 32.12583 -85.49862 30919 ft 483 kts 144°
2026-04-24 23:45 32.07238 -85.45122 30919 ft 484 kts 144°
2026-04-24 23:45 32.01844 -85.40345 30923 ft 484 kts 144°
2026-04-24 23:46 31.96480 -85.35601 30909 ft 485 kts 144°
2026-04-24 23:46 31.91074 -85.30828 30928 ft 485 kts 144°
2026-04-24 23:47 31.85664 -85.26058 30924 ft 485 kts 144°
2026-04-24 23:47 31.80281 -85.21319 30926 ft 486 kts 144°
2026-04-24 23:48 31.74863 -85.16556 30925 ft 486 kts 144°
2026-04-24 23:48 31.69436 -85.11792 30915 ft 486 kts 144°
2026-04-24 23:49 31.64047 -85.07067 30931 ft 486 kts 144°
2026-04-24 23:49 31.58650 -85.02237 30920 ft 488 kts 137°
2026-04-24 23:50 31.56527 -84.99148 30950 ft 488 kts 119°
2026-04-24 23:50 31.55178 -84.95556 30945 ft 487 kts 109°
2026-04-24 23:50 31.52973 -84.88034 30930 ft 489 kts 108°
2026-04-24 23:51 31.50750 -84.80490 30924 ft 490 kts 109°
2026-04-24 23:51 31.48469 -84.72968 30929 ft 490 kts 109°
2026-04-24 23:52 31.46154 -84.65445 30939 ft 490 kts 109°
2026-04-24 23:52 31.43838 -84.57939 30931 ft 490 kts 109°
2026-04-24 23:53 31.41536 -84.50487 30931 ft 489 kts 109°
2026-04-24 23:53 31.39224 -84.43013 30918 ft 488 kts 109°
2026-04-24 23:54 31.36908 -84.35546 30926 ft 488 kts 109°
2026-04-24 23:54 31.34583 -84.28067 30926 ft 489 kts 109°
2026-04-24 23:55 31.32255 -84.20594 30921 ft 489 kts 109°
2026-04-24 23:55 31.29918 -84.13108 30920 ft 490 kts 109°
2026-04-24 23:56 31.27587 -84.05666 30922 ft 490 kts 109°
2026-04-24 23:56 31.25232 -83.98187 30928 ft 490 kts 109°
2026-04-24 23:57 31.22888 -83.90756 30937 ft 490 kts 109°
2026-04-24 23:57 31.20515 -83.83248 30927 ft 489 kts 109°
2026-04-24 23:58 31.18173 -83.75853 30924 ft 488 kts 109°
2026-04-24 23:58 31.15810 -83.68411 30926 ft 487 kts 110°
2026-04-24 23:59 31.13451 -83.60996 30931 ft 486 kts 110°
2026-04-24 23:59 31.11104 -83.53635 30932 ft 486 kts 110°
2026-04-25 00:00 31.08745 -83.46255 30934 ft 485 kts 110°
2026-04-25 00:00 31.06381 -83.38876 30905 ft 485 kts 109°
2026-04-25 00:01 31.04011 -83.31493 30917 ft 486 kts 110°
2026-04-25 00:01 31.01634 -83.24106 30911 ft 487 kts 110°
2026-04-25 00:02 30.99243 -83.16693 30908 ft 489 kts 110°
2026-04-25 00:02 30.96846 -83.09278 30910 ft 489 kts 110°
2026-04-25 00:03 30.94456 -83.01897 30912 ft 490 kts 110°
2026-04-25 00:03 30.92047 -82.94474 30929 ft 490 kts 110°
2026-04-25 00:04 30.89201 -82.87279 30925 ft 490 kts 124°
2026-04-25 00:04 30.84676 -82.81396 30936 ft 488 kts 142°
2026-04-25 00:05 30.79289 -82.76607 30950 ft 487 kts 143°
2026-04-25 00:05 30.73890 -82.71851 30940 ft 486 kts 143°
2026-04-25 00:06 30.68567 -82.67091 30946 ft 485 kts 143°
2026-04-25 00:06 30.63225 -82.62281 30948 ft 484 kts 143°
2026-04-25 00:07 30.57899 -82.57488 30948 ft 484 kts 143°
2026-04-25 00:07 30.52563 -82.52698 30948 ft 484 kts 143°
2026-04-25 00:08 30.47260 -82.47945 30949 ft 485 kts 143°
2026-04-25 00:08 30.41916 -82.43163 30948 ft 485 kts 143°
2026-04-25 00:09 30.36566 -82.38382 30953 ft 485 kts 143°
2026-04-25 00:09 30.31217 -82.33607 30944 ft 486 kts 143°
2026-04-25 00:10 30.25857 -82.28829 30954 ft 486 kts 143°
2026-04-25 00:10 30.20232 -82.24540 30953 ft 483 kts 157°
2026-04-25 00:11 30.14961 -82.22512 30947 ft 479 kts 172°
2026-04-25 00:11 30.07306 -82.21104 30959 ft 479 kts 173°
2026-04-25 00:12 30.00721 -82.19859 30967 ft 480 kts 173°
2026-04-25 00:12 29.94117 -82.18550 30672 ft 486 kts 172°
2026-04-25 00:13 29.90752 -82.17885 29686 ft 493 kts 172°
2026-04-25 00:13 29.87358 -82.17209 28669 ft 493 kts 172°
2026-04-25 00:13 29.84017 -82.16542 27770 ft 492 kts 172°
2026-04-25 00:13 29.80664 -82.15871 27159 ft 486 kts 172°
2026-04-25 00:14 29.77341 -82.15207 26476 ft 481 kts 172°
2026-04-25 00:14 29.74056 -82.14552 25825 ft 477 kts 172°
2026-04-25 00:14 29.70787 -82.13901 25176 ft 473 kts 172°
2026-04-25 00:14 29.67559 -82.13259 24535 ft 470 kts 172°
2026-04-25 00:15 29.64376 -82.12627 23886 ft 467 kts 172°
2026-04-25 00:15 29.61175 -82.11992 23177 ft 465 kts 172°
2026-04-25 00:15 29.57995 -82.11361 22470 ft 461 kts 172°
2026-04-25 00:15 29.54847 -82.10737 21813 ft 457 kts 172°
2026-04-25 00:16 29.51728 -82.10118 21178 ft 453 kts 172°
2026-04-25 00:16 29.48629 -82.09504 20556 ft 449 kts 172°
2026-04-25 00:16 29.45560 -82.08897 19923 ft 446 kts 172°
2026-04-25 00:16 29.42494 -82.08292 19302 ft 444 kts 172°
2026-04-25 00:17 29.39499 -82.07700 18684 ft 442 kts 172°
2026-04-25 00:17 29.36479 -82.07104 18123 ft 438 kts 172°
2026-04-25 00:17 29.33526 -82.06521 17924 ft 424 kts 172°
2026-04-25 00:17 29.30677 -82.05874 17694 ft 413 kts 165°
2026-04-25 00:18 29.28075 -82.04513 17197 ft 410 kts 151°
2026-04-25 00:18 29.25616 -82.02889 16689 ft 407 kts 151°
2026-04-25 00:18 29.23167 -82.01278 16204 ft 403 kts 151°
2026-04-25 00:18 29.20733 -81.99703 15710 ft 400 kts 152°
2026-04-25 00:19 29.18313 -81.98161 15221 ft 397 kts 152°
2026-04-25 00:19 29.15895 -81.96635 14731 ft 395 kts 152°
2026-04-25 00:19 29.13492 -81.95126 14240 ft 392 kts 152°
2026-04-25 00:19 29.11107 -81.93630 13740 ft 390 kts 152°
2026-04-25 00:20 29.08736 -81.92143 13197 ft 387 kts 152°
2026-04-25 00:20 29.06480 -81.90550 12692 ft 384 kts 143°
2026-04-25 00:20 29.04494 -81.88526 12198 ft 381 kts 136°
2026-04-25 00:20 29.02585 -81.86398 11721 ft 377 kts 136°
2026-04-25 00:21 29.00721 -81.84359 11250 ft 373 kts 137°
2026-04-25 00:21 28.98858 -81.82351 11054 ft 361 kts 137°
2026-04-25 00:21 28.97120 -81.80323 10774 ft 354 kts 130°
2026-04-25 00:21 28.95637 -81.78145 10464 ft 339 kts 127°
2026-04-25 00:22 28.94273 -81.76008 10175 ft 326 kts 127°
2026-04-25 00:22 28.92958 -81.73961 9942 ft 312 kts 127°
2026-04-25 00:22 28.91705 -81.72054 9938 ft 290 kts 128°
2026-04-25 00:22 28.90480 -81.70222 9423 ft 289 kts 128°
2026-04-25 00:23 28.89273 -81.68431 9114 ft 282 kts 128°
2026-04-25 00:23 28.88099 -81.66692 8879 ft 279 kts 128°
2026-04-25 00:23 28.86908 -81.64930 8616 ft 280 kts 129°
2026-04-25 00:23 28.85716 -81.63166 8372 ft 281 kts 129°
2026-04-25 00:24 28.84521 -81.61400 8125 ft 282 kts 129°
2026-04-25 00:24 28.83326 -81.59634 7870 ft 281 kts 129°
2026-04-25 00:24 28.82130 -81.57864 7622 ft 281 kts 129°
2026-04-25 00:24 28.80947 -81.56118 7377 ft 282 kts 129°
2026-04-25 00:25 28.79755 -81.54358 7123 ft 279 kts 129°
2026-04-25 00:25 28.78605 -81.52583 6900 ft 275 kts 124°
2026-04-25 00:25 28.77581 -81.50763 6708 ft 270 kts 123°
2026-04-25 00:25 28.76588 -81.48966 6520 ft 265 kts 123°
2026-04-25 00:26 28.75606 -81.47207 6339 ft 261 kts 123°
2026-04-25 00:26 28.74636 -81.45479 6145 ft 256 kts 124°
2026-04-25 00:26 28.73691 -81.43776 5931 ft 252 kts 119°
2026-04-25 00:26 28.73225 -81.42554 5675 ft 255 kts 108°
2026-04-25 00:27 28.72691 -81.40630 5361 ft 255 kts 109°
2026-04-25 00:27 28.72118 -81.38703 5010 ft 257 kts 109°
2026-04-25 00:27 28.71527 -81.36770 4655 ft 259 kts 110°
2026-04-25 00:27 28.70880 -81.34882 4261 ft 258 kts 121°
2026-04-25 00:28 28.69603 -81.33533 3953 ft 247 kts 160°
2026-04-25 00:28 28.67962 -81.33218 3818 ft 236 kts 176°
2026-04-25 00:28 28.66339 -81.33074 3637 ft 231 kts 176°
2026-04-25 00:28 28.64748 -81.32955 3467 ft 228 kts 177°
2026-04-25 00:29 28.63170 -81.32899 3314 ft 224 kts 179°
2026-04-25 00:29 28.61674 -81.32878 3205 ft 212 kts 179°
2026-04-25 00:29 28.60235 -81.32863 3032 ft 203 kts 179°
2026-04-25 00:29 28.58856 -81.32850 2779 ft 193 kts 177°
2026-04-25 00:30 28.57554 -81.32836 2529 ft 181 kts 176°
2026-04-25 00:30 28.56340 -81.32823 2298 ft 169 kts 177°
2026-04-25 00:30 28.55210 -81.32812 2111 ft 156 kts 176°
2026-04-25 00:30 28.54098 -81.32799 1902 ft 158 kts 176°
2026-04-25 00:31 28.53014 -81.32787 1681 ft 153 kts 174°
2026-04-25 00:31 28.51954 -81.32774 1487 ft 156 kts 175°
2026-04-25 00:31 28.50875 -81.32763 1280 ft 153 kts 176°
2026-04-25 00:31 28.49799 -81.32751 1076 ft 155 kts 176°
2026-04-25 00:32 28.48739 -81.32740 887 ft 151 kts 176°
2026-04-25 00:32 28.47686 -81.32730 703 ft 151 kts 176°
2026-04-25 00:32 28.46636 -81.32716 490 ft 148 kts 177°
2026-04-25 00:32 28.45647 -81.32706 295 ft 140 kts 176°
2026-04-25 00:33 28.44655 -81.32696 133 ft 147 kts 176°
2026-04-25 00:33 28.43698 -81.32669 101 ft 123 kts 181°
2026-04-25 00:33 28.42958 -81.32661 101 ft 89 kts 179°
2026-04-25 00:33 28.42655 -81.32624 99 ft 42 kts 153°
2026-04-25 00:34 28.42585 -81.32542 99 ft 2 kts 119°
2026-04-25 00:34 28.42578 -81.32528 99 ft 2 kts 119°
2026-04-25 00:34 28.42571 -81.32514 100 ft 2 kts 119°
2026-04-25 00:34 28.42564 -81.32500 100 ft 2 kts 119°
2026-04-25 00:35 28.42558 -81.32487 100 ft 2 kts 120°
2026-04-25 00:35 28.42545 -81.32463 100 ft 6 kts 121°
2026-04-25 00:35 28.42520 -81.32414 100 ft 7 kts 120°
2026-04-25 00:35 28.42493 -81.32362 101 ft 10 kts 121°
2026-04-25 00:36 28.42456 -81.32290 102 ft 11 kts 120°
2026-04-25 00:36 28.42416 -81.32214 105 ft 13 kts 120°
2026-04-25 00:36 28.42357 -81.32090 104 ft 20 kts 112°
2026-04-25 00:36 28.42345 -81.31922 100 ft 24 kts 89°
2026-04-25 00:37 28.42347 -81.31716 98 ft 28 kts 90°
2026-04-25 00:37 28.42349 -81.31491 96 ft 28 kts 89°
2026-04-25 00:37 28.42349 -81.31276 93 ft 26 kts 91°
2026-04-25 00:37 28.42323 -81.31072 94 ft 27 kts 99°
2026-04-25 00:38 28.42323 -81.30857 93 ft 27 kts 86°
2026-04-25 00:38 28.42335 -81.30650 95 ft 26 kts 83°
2026-04-25 00:38 28.42351 -81.30450 93 ft 25 kts 86°
2026-04-25 00:38 28.42359 -81.30262 96 ft 23 kts 88°
2026-04-25 00:39 28.42361 -81.30071 93 ft 27 kts 90°
2026-04-25 00:39 28.42366 -81.29860 94 ft 24 kts 76°
2026-04-25 00:39 28.42501 -81.29797 96 ft 23 kts 358°
2026-04-25 00:39 28.42658 -81.29797 93 ft 22 kts 359°
2026-04-25 00:40 28.42811 -81.29799 96 ft 22 kts 360°
2026-04-25 00:40 28.42918 -81.29878 96 ft 14 kts 291°
2026-04-25 00:40 28.42933 -81.29917 94 ft 8 kts 298°
2026-04-25 00:40 28.42966 -81.29979 94 ft 11 kts 301°
2026-04-25 00:41 28.42959 -81.30053 94 ft 7 kts 202°
2026-04-25 00:41 28.42911 -81.30056 95 ft 6 kts 183°
2026-04-25 00:41 28.42902 -81.30057 94 ft 0 kts 182°